Los Angeles, CA

12:57 AM PDT on September 26, 2017 (GMT -0700)
Los Angeles International

Weather History for KLAX - January, 2014

Change the Weather History Date:

Wednesday, January 15, 2014

  Actual Average Record
Temperature  
Mean Temperature 68 °F 57 °F  
Max Temperature 83 °F 65 °F 86 °F (1976)
Min Temperature 52 °F 49 °F 35 °F (1949)
Degree Days  
Heating Degree Days 0 8  
Month to date heating degree days 74 131  
Since 1 July heating degree days 367 573  
Cooling Degree Days 3 0  
Month to date cooling degree days 3 0  
Year to date cooling degree days 3 0  
Growing Degree Days 17 (Base 50)    
Moisture  
Dew Point 23 °F    
Average Humidity 23    
Maximum Humidity 38    
Minimum Humidity 8    
Precipitation  
Precipitation 0.00 in 0.09 in 1.61 in (1952)
Month to date precipitation 0.00 1.35  
Year to date precipitation 0.00 1.35  
Since 1 July precipitation 1.04  
Sea Level Pressure  
Sea Level Pressure 30.16 in    
Wind  
Wind Speed 4 mph (SW)    
Max Wind Speed 12 mph    
Max Gust Speed 18 mph    
Visibility 10 miles    
Events      
T = Trace of Precipitation, MM = Missing Value Source: NWS Daily Summary

Daily Weather History Graph

Daily Weather History Graph

Search for Another Location

Airport or City:

Trip Planner

Search our weather history database for the weather conditions in past years. The results will help you decide how hot, cold, wet, or windy it might be!

Date:

Astronomy

Jan. 15, 2014 Rise Set
Actual Time 6:58 AM PST 5:07 PM PST
Civil Twilight 6:31 AM PST 5:34 PM PST
Nautical Twilight 6:00 AM PST 6:05 PM PST
Astronomical Twilight 5:30 AM PST 6:35 PM PST
Moon 5:06 PM PST (1/15) 6:20 AM PST (1/15)
Length of Visible Light 11h 03m
Length of Day
10h 09m
Full, 100% of the Moon is Illuminated
Jan 15
Full
Jan 15
Full
Jan 23
Last Quarter
Jan 30
New
Feb 6
First Quarter

Hourly Weather History & Observations

Time (PST) Temp. Dew Point Humidity Pressure Visibility Wind Dir Wind Speed Gust Speed Precip Events Conditions
12:53 AM 64.0 °F 24.1 °F 22% 30.20 in 10.0 mi Calm Calm - N/A   Clear
1:53 AM 57.0 °F 28.0 °F 33% 30.21 in 10.0 mi Calm Calm - N/A   Clear
2:53 AM 55.0 °F 30.0 °F 38% 30.21 in 10.0 mi ESE 3.5 mph - N/A   Clear
3:53 AM 55.0 °F 28.0 °F 35% 30.21 in 10.0 mi SE 3.5 mph - N/A   Clear
4:53 AM 55.0 °F 28.0 °F 35% 30.20 in 10.0 mi SE 3.5 mph - N/A   Clear
5:53 AM 54.0 °F 28.0 °F 37% 30.22 in 10.0 mi Calm Calm - N/A   Clear
6:53 AM 57.9 °F 25.0 °F 28% 30.21 in 10.0 mi Calm Calm - N/A   Clear
7:53 AM 59.0 °F 26.1 °F 28% 30.22 in 10.0 mi ENE 4.6 mph - N/A   Clear
8:53 AM 69.1 °F 23.0 °F 18% 30.23 in 10.0 mi Calm Calm - N/A   Clear
9:53 AM 75.9 °F 21.0 °F 13% 30.23 in 10.0 mi Calm Calm - N/A   Clear
10:53 AM 78.1 °F 19.0 °F 11% 30.21 in 10.0 mi SE 3.5 mph - N/A   Clear
11:53 AM 82.0 °F 18.0 °F 9% 30.17 in 10.0 mi SSE 3.5 mph - N/A   Clear
12:53 PM 82.0 °F 17.1 °F 9% 30.14 in 10.0 mi West 6.9 mph - N/A   Clear
1:53 PM 79.0 °F 21.9 °F 12% 30.13 in 10.0 mi West 10.4 mph - N/A   Clear
2:53 PM 77.0 °F 18.0 °F 11% 30.13 in 10.0 mi West 10.4 mph - N/A   Clear
3:53 PM 79.0 °F 14.0 °F 9% 30.12 in 10.0 mi West 6.9 mph - N/A   Clear
4:53 PM 75.9 °F 17.1 °F 11% 30.11 in 10.0 mi WNW 8.1 mph - N/A   Clear
5:53 PM 71.1 °F 19.9 °F 14% 30.12 in 10.0 mi West 6.9 mph - N/A   Clear
6:53 PM 70.0 °F 23.0 °F 17% 30.12 in 10.0 mi Calm Calm - N/A   Clear
7:53 PM 73.0 °F 21.0 °F 14% 30.11 in 10.0 mi Calm Calm - N/A   Clear
8:53 PM 72.0 °F 15.1 °F 11% 30.11 in 10.0 mi North 5.8 mph - N/A   Clear
9:53 PM 69.1 °F 25.0 °F 19% 30.11 in 10.0 mi Variable 4.6 mph - N/A   Clear
10:53 PM 68.0 °F 27.0 °F 21% 30.11 in 10.0 mi Variable 3.5 mph - N/A   Clear
11:53 PM 63.0 °F 27.0 °F 26% 30.11 in 10.0 mi Calm Calm - N/A   Clear